Simultaneous Nadir Overpasses (SNOs) Predictions

Prediction of SNOs between METOP-B and TERRA Satellite Orbit:

Table of predicted SNOs for the next 14.0 days since TLE Epoch: 8/22/2020
Index Date (METOP-B) Time (METOP-B) Lat,Lon (METOP-B) SZA (METOP-B ) Date (TERRA) Time (TERRA) Lat,Lon (TERRA) SZA (TERRA ) Distance(km) Time Diff (sec)
1 08/22/2020 16:39:38 -81.33, 157.64 107.34 08/22/2020 16:40:12 -81.32, 157.65 107.32 0.43 34
2 08/22/2020 17:30:18 81.33, -34.58 72.74 08/22/2020 17:29:38 81.33, -34.55 72.72 0.48 40
3 08/25/2020 12:13:58 -81.33,-135.67 106.32 08/25/2020 12:14:27 -81.33,-135.80 106.32 2.08 29
4 08/25/2020 13:04:38 81.33, 32.08 73.75 08/25/2020 13:03:53 81.34, 31.97 73.71 1.82 45
5 08/28/2020 07:48:19 -81.33, -69.39 105.33 08/28/2020 07:48:42 -81.33, -69.29 105.31 1.75 23
6 08/28/2020 08:38:59 81.33, 98.33 74.73 08/28/2020 08:38:08 81.34, 98.45 74.72 2.13 51
7 08/31/2020 03:22:38 -81.33, -2.73 104.28 08/31/2020 03:22:56 -81.33, -2.82 104.28 1.68 18
8 08/31/2020 04:13:18 81.34, 164.96 75.78 08/31/2020 04:12:22 81.34, 164.89 75.75 1.21 56
9 09/02/2020 22:56:59 -81.33, 63.53 103.25 09/02/2020 22:57:11 -81.33, 63.60 103.24 1.17 12
